Home > Weather > Berkeley > Past weeks

Flag for U.S.A. Weather for the Past 2 Weeks in Berkeley, California, U.S.A.

Now
70 °F

Broken clouds.


Feels Like: 77 °F
Forecast: 57 / 73 °F
Wind: 13 mph from West

Location: Metro Oakland International Airport

Current Time: Feb 14, 2016 at 4:00:36 PM

Latest Report: Feb 14, 2016 at 2:53 PM


Visibility: 10 mi

Pressure: 30.20 "Hg

Humidity: 55%

Dew point: 53 °F

Location of BerkeleyLocation

Historic Weather in Berkeley — Graph

°F

Berkeley Temperature Yesterday

Maximum temperature yesterday: 65 °F (at 1:53 PM)
Minimum temperature yesterday: 52 °F (at 10:53 PM)
Average temperature yesterday: 57 °F

High & Low Weather Summary for the Past Weeks

 TemperatureHumidityPressure
High79 °F (Feb 8, 1:53 PM)96% (Feb 2, 7:53 AM)30.47 "Hg (Feb 2, 7:53 AM)
Low41 °F (Feb 3, 4:53 AM)23% (Feb 8, 1:53 PM)29.76 "Hg (Jan 31, 2:53 PM)
Average54 °F69%30.23 "Hg
* Reported Jan 30 1:53 PM — Feb 14 1:53 PM, Berkeley, Weather by CustomWeather, © 2016

Note: Actual official high and low records may vary slightly from our data, if they occured in-between our weather recording intervals... More about our weather records

Advertising

Berkeley Weather History for the Previous 24 Hours

 ConditionsComfort  
Time TempWeatherWind HumidityBarometerVisibility
1:53 PM
Sun, Feb 14
69 °FBroken clouds.13 mph53%30.22 "Hg10 mi
12:53 PM65 °FBroken clouds.8 mph56%30.25 "Hg10 mi
11:53 AM63 °FBroken clouds.8 mph63%30.27 "Hg10 mi
10:53 AM61 °FBroken clouds.8 mph58%30.31 "Hg10 mi
9:53 AM59 °FBroken clouds.6 mph67%30.31 "Hg10 mi
8:53 AM56 °FPartly sunny.3 mph77%30.31 "Hg10 mi
7:53 AM51 °FPartly sunny.5 mph83%30.30 "Hg10 mi
6:53 AM48 °FPassing clouds.3 mph86%30.29 "Hg10 mi
5:53 AM48 °FPassing clouds.5 mph86%30.29 "Hg10 mi
4:53 AM49 °FPassing clouds.No wind86%30.28 "Hg10 mi
3:53 AM49 °FPassing clouds.No wind90%30.27 "Hg10 mi
2:53 AM50 °FPassing clouds.3 mph86%30.28 "Hg10 mi
1:53 AM50 °FPassing clouds.5 mph89%30.29 "Hg9 mi
12:53 AM51 °FPassing clouds.No wind86%30.29 "Hg10 mi
11:53 PM
Sat, Feb 13
52 °FPassing clouds.5 mph83%30.29 "Hg10 mi
10:53 PM52 °FPassing clouds.3 mph86%30.30 "Hg10 mi
9:53 PM54 °FPassing clouds.No wind83%30.29 "Hg10 mi
8:53 PM55 °FPassing clouds.No wind83%30.27 "Hg10 mi
7:53 PM56 °FPassing clouds.3 mph77%30.25 "Hg10 mi
6:53 PM58 °FPassing clouds.5 mph75%30.25 "Hg10 mi
5:53 PM59 °FPassing clouds.12 mph75%30.23 "Hg10 mi
4:53 PM62 °FPartly sunny.12 mph67%30.21 "Hg10 mi
Weather by CustomWeather, © 2016

See weather overviewHow to use our weather pages